Change the Weather History Date:

Tuesday, January 24, 2012

  Actual Average Record
Temperature  
Mean Temperature 48 °F 37 °F  
Max Temperature 59 °F 48 °F 74 °F (1949)
Min Temperature 36 °F 27 °F -7 °F (1963)
Degree Days  
Heating Degree Days 17 28  
Month to date heating degree days 595 672  
Since 1 July heating degree days 2069 2333  
Cooling Degree Days 0 0  
Month to date cooling degree days 0 0  
Year to date cooling degree days 0 0  
Moisture  
Dew Point 38 °F    
Average Humidity 65    
Maximum Humidity 100    
Minimum Humidity 30    
Precipitation  
Precipitation 0.00 in 0.12 in 3.35 in (2010)
Month to date precipitation 3.44 2.83  
Year to date precipitation 3.44 2.83  
Snow  
Snow 0.00 in 0.10 in 3.30 in (1948)
Month to date snowfall T 3.2  
Since 1 July snowfall T 4.2  
Snow Depth 0.00 in    
Sea Level Pressure  
Sea Level Pressure 30.12 in    
Wind  
Wind Speed 9 mph (NNW)    
Max Wind Speed 18 mph    
Max Gust Speed 23 mph    
Visibility 6 miles    
Events Fog    
T = Trace of Precipitation, MM = Missing Value Source: NWS Daily Summary

Daily Weather History Graph

Daily Weather History Graph

Search for Another Location

Airport or City:

Trip Planner

Search our weather history database for the weather conditions in past years. The results will help you decide how hot, cold, wet, or windy it might be!

Date:

Astronomy

Jan. 24, 2012 Rise Set
Actual Time 7:35 AM EST 5:49 PM EST
Civil Twilight 7:08 AM EST 6:16 PM EST
Nautical Twilight 6:37 AM EST 6:47 PM EST
Astronomical Twilight 6:06 AM EST 7:17 PM EST
Moon 8:08 AM EST (1/24) 7:34 PM EST (1/24)
Length of Visible Light 11h 08m
Length of Day
10h 14m
New Moon, 2% of the Moon is Illuminated
Jan 24
New Moon
Jan 30
First Quarter
Feb 7
Full
Feb 14
Last Quarter
Feb 21
New

Hourly Weather History & Observations

Time (EST) Temp. Windchill Dew Point Humidity Pressure Visibility Wind Dir Wind Speed Gust Speed Precip Events Conditions
12:54 AM 43.0 °F - 41.0 °F 93% 30.03 in 0.2 mi Calm Calm - N/A Fog Fog
1:30 AM 42.8 °F - 42.8 °F 100% 30.04 in 0.2 mi Calm Calm - N/A Fog Fog
1:54 AM 42.1 °F 38.4 °F 41.0 °F 96% 30.05 in 0.5 mi NW 5.8 mph - N/A Fog Fog
2:52 AM 42.8 °F 38.0 °F 42.8 °F 100% 30.05 in 0.2 mi NNW 8.1 mph - N/A Fog Fog
2:54 AM 42.1 °F 37.1 °F 41.0 °F 96% 30.05 in 0.2 mi NNW 8.1 mph - N/A Fog Fog
3:12 AM 42.8 °F 39.3 °F 42.8 °F 100% 30.05 in 0.5 mi NNW 5.8 mph - N/A Fog Fog
3:31 AM 42.8 °F - 42.8 °F 100% 30.05 in 0.2 mi Calm Calm - N/A Fog Fog
3:40 AM 42.8 °F 40.1 °F 42.8 °F 100% 30.06 in 0.5 mi NNW 4.6 mph - N/A Fog Fog
3:54 AM 42.1 °F 38.4 °F 42.1 °F 100% 30.05 in 0.8 mi North 5.8 mph - N/A   Mist
3:58 AM 42.8 °F 39.3 °F 42.8 °F 100% 30.06 in 1.5 mi North 5.8 mph - N/A   Overcast
4:11 AM 42.8 °F 39.3 °F 42.8 °F 100% 30.06 in 1.0 mi North 5.8 mph - N/A   Overcast
4:24 AM 42.8 °F 40.1 °F 42.8 °F 100% 30.06 in 0.8 mi North 4.6 mph - N/A   Overcast
4:52 AM 42.8 °F 40.1 °F 41.0 °F 93% 30.07 in 0.5 mi NNW 4.6 mph - N/A Fog Fog
4:54 AM 42.1 °F 38.4 °F 41.0 °F 96% 30.06 in 0.5 mi NNW 5.8 mph - N/A Fog Fog
5:03 AM 41.0 °F 38.0 °F 41.0 °F 100% 30.07 in 0.2 mi North 4.6 mph - N/A Fog Fog
5:16 AM 41.0 °F 37.1 °F 41.0 °F 100% 30.07 in 0.5 mi NNW 5.8 mph - N/A Fog Fog
5:28 AM 41.0 °F 37.1 °F 41.0 °F 100% 30.08 in 1.0 mi North 5.8 mph - N/A   Mist
5:33 AM 41.0 °F 37.1 °F 41.0 °F 100% 30.08 in 2.0 mi NNW 5.8 mph - N/A   Overcast
5:40 AM 41.0 °F 38.0 °F 39.2 °F 93% 30.08 in 6.0 mi NNW 4.6 mph - N/A   Mostly Cloudy
5:52 AM 41.0 °F 35.8 °F 41.0 °F 100% 30.09 in 10.0 mi North 8.1 mph - N/A   Scattered Clouds
5:54 AM 42.1 °F 37.1 °F 41.0 °F 96% 30.08 in 10.0 mi North 8.1 mph - N/A   Partly Cloudy
6:54 AM 41.0 °F 34.3 °F 39.2 °F 93% 30.10 in 10.0 mi NNW 11.5 mph - N/A   Clear
7:54 AM 42.1 °F 35.7 °F 39.0 °F 89% 30.12 in 10.0 mi NNW 11.5 mph - N/A   Clear
8:54 AM 44.6 °F 39.2 °F 39.2 °F 81% 30.15 in 10.0 mi North 10.4 mph - N/A   Clear
9:54 AM 46.9 °F - 39.9 °F 77% 30.16 in 10.0 mi NNW 11.5 mph - N/A   Clear
10:54 AM 48.9 °F - 39.0 °F 69% 30.18 in 10.0 mi NNW 17.3 mph 20.7 mph N/A   Clear
11:54 AM 53.1 °F - 39.0 °F 59% 30.16 in 10.0 mi NNW 12.7 mph - N/A   Clear
12:54 PM 55.0 °F - 35.1 °F 47% 30.14 in 10.0 mi NNW 17.3 mph - N/A   Clear
1:54 PM 57.0 °F - 30.9 °F 37% 30.12 in 10.0 mi NNW 11.5 mph - N/A   Clear
2:54 PM 57.9 °F - 27.0 °F 31% 30.12 in 10.0 mi North 11.5 mph 18.4 mph N/A   Clear
3:54 PM 57.9 °F - 26.1 °F 30% 30.13 in 10.0 mi NNW 15.0 mph 20.7 mph N/A   Clear
4:54 PM 57.0 °F - 26.1 °F 30% 30.15 in 10.0 mi NNW 13.8 mph - N/A   Clear
5:54 PM 51.1 °F - 28.9 °F 43% 30.19 in 10.0 mi NNW 11.5 mph - N/A   Clear
6:54 PM 48.0 °F - 30.0 °F 50% 30.22 in 10.0 mi NNW 10.4 mph - N/A   Clear
7:54 PM 48.0 °F - 30.0 °F 50% 30.24 in 10.0 mi North 6.9 mph - N/A   Clear
8:54 PM 45.0 °F - 30.9 °F 58% 30.26 in 10.0 mi Calm Calm - N/A   Clear
9:54 PM 41.0 °F - 30.2 °F 65% 30.27 in 10.0 mi Calm Calm - N/A   Clear
10:54 PM 42.1 °F 39.2 °F 32.0 °F 67% 30.28 in 10.0 mi North 4.6 mph - N/A   Clear
11:54 PM 41.0 °F 35.2 °F 32.0 °F 70% 30.25 in 10.0 mi North 9.2 mph - N/A   Clear